Home   Weather   Paris   Past weeks

Flag for France Past Weather in Paris, Île-de-France, France — Yesterday and Last 2 Weeks

Now
36 °F

Clear.


Feels Like: 36 °F
Forecast: 33 / 48 °F
Wind: 1 mph from Southeast

Location: Villacoublay

Current Time: Dec 6, 2016 at 2:05:31 am

Latest Report: Dec 6, 2016 at 1:30 am


Visibility: 4 mi

Pressure: 30.30 "Hg

Humidity: 93%

Dew Point: 34 °F

Location of ParisLocation

Past Weather in Paris — Graph

°F

Paris Temperature Yesterday

Maximum temperature yesterday: 50 °F (at 3:00 pm)
Minimum temperature yesterday: 34 °F (at 7:30 am)
Average temperature yesterday: 42 °F

High & Low Weather Summary for the Past Weeks

 TemperatureHumidityPressure
High59 °F (Nov 21, 12:30 pm)100% (Nov 21, 1:00 am)30.57 "Hg (Nov 21, 1:00 am)
Low25 °F (Nov 30, 6:00 am)45% (Nov 29, 2:00 pm)29.30 "Hg (Nov 21, 11:00 am)
Average43 °F79%30.09 "Hg
* Reported Nov 21 1:00 am — Dec 6 1:00 am, Paris, Weather by CustomWeather, © 2016

Note: Actual official high and low records may vary slightly from our data, if they occured in-between our weather recording intervals... More about our weather records

Advertising

Paris Weather History for the Previous 24 Hours

Scroll right to see more
 ConditionsComfort  
Time TempWeatherWind HumidityBarometerVisibility
1:00 am
Tue, Dec 6
37 °FClear.1 mph87%30.30 "Hg4 mi
12:30 am37 °FClear.No wind87%30.30 "Hg4 mi
12:00 am39 °FClear.2 mph87%30.30 "Hg4 mi
11:30 pm
Mon, Dec 5
41 °FClear.2 mph81%30.30 "Hg5 mi
11:00 pm41 °FClear.3 mph81%30.30 "Hg5 mi
10:30 pm41 °FClear.3 mph81%30.30 "Hg5 mi
10:00 pm41 °FClear.2 mph81%30.30 "Hg5 mi
9:30 pm41 °FClear.2 mph81%30.30 "Hg6 mi
9:00 pm41 °FClear.2 mph81%30.30 "Hg6 mi
8:30 pm43 °FClear.1 mph76%30.27 "Hg6 mi
8:00 pm43 °FClear.3 mph81%30.27 "Hg6 mi
7:30 pm43 °FClear.3 mph81%30.27 "Hg6 mi
7:00 pm45 °FClear.3 mph71%30.27 "Hg10 mi
6:30 pm43 °FClear.2 mph76%30.27 "Hg10 mi
6:00 pm43 °FClear.3 mph76%30.24 "Hg6 mi
5:30 pm45 °FClear.3 mph71%30.24 "Hg6 mi
5:00 pm45 °FClear.3 mph71%30.24 "Hg6 mi
4:30 pm46 °FClear.3 mph66%30.24 "Hg6 mi
4:00 pm48 °FSunny.3 mph62%30.24 "Hg10 mi
3:30 pm50 °FSunny.2 mph62%30.24 "Hg10 mi
3:00 pm50 °FSunny.1 mph62%30.24 "Hg10 mi
2:30 pm46 °FSunny.2 mph66%30.24 "Hg10 mi
2:00 pm48 °FSunny.3 mph62%30.24 "Hg10 mi
1:30 pm48 °FSunny.3 mph66%30.24 "Hg10 mi
1:00 pm45 °FPassing clouds.3 mph71%30.24 "HgN/A
12:30 pm45 °FPassing clouds.3 mph71%30.24 "HgN/A
12:00 pm43 °FPassing clouds.3 mph71%30.24 "HgN/A
11:30 am41 °FClear.5 mph76%30.24 "Hg6 mi
11:00 am41 °FClear.5 mph76%30.24 "Hg6 mi
10:30 am39 °FPassing clouds.3 mph75%30.24 "HgN/A
10:00 am37 °FClear.5 mph81%30.24 "Hg6 mi
9:30 am36 °FClear.5 mph81%30.24 "Hg4 mi
9:00 am34 °FClear.3 mph87%30.21 "Hg4 mi
8:30 am34 °FClear.6 mph87%30.21 "Hg4 mi
8:00 am34 °FClear.3 mph87%30.21 "Hg4 mi
7:30 am34 °FClear.3 mph87%30.21 "Hg4 mi
Weather by CustomWeather, © 2016

See weather overviewHow to use our weather pages